Wind_Speed
32 32 31 29 29 29 28 27 29 26 28 25 21 25 22 18 15 17 18 20 23 22 23 25 26 30 27 25 22 28 31 25 27 27 27 26 27 28 27 28 29 33 34
34 33 32 32 32 31 30 31 32 34 33 29 26 28 23 22 18 18 21 20 21 24 24 26 28 26 34 33 30 27 26 29 29 31 28 25 25 27 28 33 33 30 31
38 36 35 36 37 37 36 36 37 37 39 37 35 32 30 28 28 24 21 22 22 23 23 25 27 29 29 33 33 33 32 28 30 30 36 36 35 32 30 30 27 25 23
42 42 40 40 40 41 41 40 43 42 42 43 41 39 34 31 32 32 26 24 24 24 25 26 27 28 30 31 31 32 31 29 30 31 33 32 31 33 34 30 26 23 20
50 50 49 47 47 48 47 49 48 48 48 46 46 45 41 35 35 33 32 29 27 26 24 25 28 29 29 30 30 30 31 30 30 30 31 31 31 31 29 28 25 24 22
56 54 54 53 52 52 53 52 51 52 53 52 51 50 48 43 40 36 35 34 30 28 27 28 27 29 31 31 30 31 30 29 29 29 32 33 31 28 26 25 24 24 25
59 56 55 54 53 52 52 53 53 54 55 56 55 54 53 51 47 40 39 38 37 34 31 30 31 29 30 32 33 32 32 31 30 31 32 31 31 30 30 27 26 26 26
56 52 50 47 45 44 44 46 47 50 54 58 59 58 58 56 54 51 48 44 39 37 35 33 32 34 31 31 31 32 34 34 33 34 34 33 32 31 31 30 29 29 28
44 43 39 37 37 35 36 39 41 44 48 56 60 62 62 61 57 59 55 53 48 42 41 40 38 38 37 37 34 33 33 34 35 35 35 36 35 34 33 32 31 30 29
33 34 36 33 33 32 32 33 38 42 45 52 59 64 65 65 63 61 62 60 56 52 47 44 42 44 43 40 40 39 36 34 35 35 36 36 36 34 34 34 33 31 31
33 31 30 32 32 34 33 34 36 42 42 48 56 62 69 67 66 66 65 63 62 60 54 49 47 45 46 45 43 42 43 41 39 38 38 37 37 35 35 35 35 34 33
36 37 37 36 37 38 40 39 40 39 43 44 50 59 66 71 70 69 68 68 66 64 61 57 53 51 51 47 46 45 46 46 46 44 42 40 40 39 38 37 36 36 36
43 42 39 39 39 40 40 40 42 44 43 44 46 51 60 68 73 74 72 69 69 67 67 64 60 57 55 53 52 52 52 50 51 51 49 46 44 43 43 41 41 40 39
51 52 49 48 47 45 44 43 43 43 46 48 47 48 53 60 69 75 76 76 74 72 69 69 67 63 64 61 58 57 55 54 54 54 54 53 50 48 47 47 46 44 43
57 59 59 57 55 54 53 52 51 50 50 49 50 52 52 55 61 67 74 77 77 77 76 73 70 69 68 66 65 63 63 60 58 59 58 57 56 54 52 50 50 50 49
63 61 61 64 66 63 61 61 59 58 57 56 56 55 56 58 58 61 66 72 76 78 77 76 74 73 71 69 69 68 67 66 65 64 61 60 60 59 57 56 55 53 53
58 63 70 70 68 69 71 70 68 67 65 64 63 62 61 61 62 64 63 66 70 73 77 78 76 76 75 73 71 71 71 69 68 68 68 66 64 63 62 60 58 58 57
59 62 64 70 75 75 75 75 74 75 76 73 71 70 68 66 65 66 67 68 69 70 73 75 76 76 75 77 76 75 74 73 71 71 71 70 68 68 67 65 64 63 60
64 65 67 70 73 74 77 82 82 81 81 80 81 80 77 76 74 71 72 72 72 73 72 72 74 76 77 76 78 78 77 76 74 72 71 73 72 70 69 70 68 67 67
72 73 74 75 76 76 77 81 83 86 89 90 88 86 85 84 82 80 78 78 76 75 75 76 76 75 77 79 79 79 79 78 77 74 73 72 74 73 72 72 72 72 71
78 80 81 81 83 82 81 81 81 85 87 90 92 95 93 91 89 88 84 83 82 79 77 77 78 78 78 80 82 83 80 81 82 79 76 75 77 77 74 73 72 72 74
78 84 84 84 87 88 88 87 86 87 87 89 90 92 95 98 97 95 93 90 89 88 86 84 82 81 81 84 84 84 84 83 80 81 79 77 79 81 82 79 78 76 75
75 83 87 87 89 92 93 91 89 89 89 90 90 92 94 96 97 100 100 99 97 94 94 93 91 88 86 86 86 87 87 86 87 86 82 82 82 80 83 83 83 81 80
77 85 93 96 96 96 97 98 95 93 94 92 90 92 94 96 98 99 100 102 103 102 101 100 99 98 95 93 91 91 89 87 85 84 87 87 87 85 86 86 84 82 83
85 87 89 93 98 101 100 100 100 101 98 95 93 93 95 95 98 99 101 102 102 104 105 106 105 105 102 100 99 97 95 92 90 89 88 87 89 89 92 92 91 88 84
90 92 94 95 97 103 105 105 104 103 101 99 96 94 95 97 98 99 101 102 103 103 104 105 107 108 107 106 104 104 101 98 96 94 92 94 92 91 91 92 94 95 94
Wind_Direction
269 263 257 254 251 251 249 246 239 230 225 241 240 242 235 230 215 223 215 203 203 205 213 210 217 211 205 206 206 205 218 221 221 227 227 227 235 241 249 249 249 249 254
266 262 253 250 249 247 250 250 241 234 232 234 235 242 240 243 230 238 222 215 206 206 213 215 220 224 221 223 228 234 220 223 220 221 221 222 225 234 236 241 243 243 247
266 261 254 251 246 246 248 247 245 240 235 236 233 230 239 245 233 240 234 225 219 210 213 220 221 224 228 236 244 246 249 235 232 229 228 231 237 241 246 239 242 245 255
267 263 259 258 253 246 243 244 245 244 239 234 233 233 229 241 242 241 232 227 227 222 215 219 223 227 231 234 238 244 248 248 247 244 242 243 242 244 248 254 260 268 268
270 268 265 260 255 252 247 245 241 242 241 236 232 230 230 235 235 244 233 228 223 229 227 223 222 224 231 235 236 238 242 248 247 244 249 254 260 262 264 265 265 269 272
269 268 267 265 260 255 252 247 243 239 239 238 232 230 231 228 230 239 235 235 227 227 233 234 230 228 227 232 237 237 237 240 244 246 246 251 256 260 260 263 260 262 265
267 267 267 266 263 259 255 251 246 242 239 236 235 230 229 230 229 231 233 234 234 236 241 237 236 238 234 232 233 237 240 242 243 244 246 248 251 255 259 260 260 262 264
265 264 264 263 261 258 253 250 245 242 237 233 233 231 228 231 230 230 232 232 234 239 245 244 242 238 239 238 235 236 238 239 242 246 247 248 250 252 255 257 259 262 266
263 262 261 260 254 251 251 248 244 239 235 231 230 231 230 229 232 230 232 235 234 236 244 248 245 244 241 239 239 240 241 241 240 241 245 246 246 249 252 254 256 260 262
263 260 259 253 248 246 253 252 245 241 237 233 230 230 229 231 230 231 232 235 237 238 239 244 246 248 247 244 242 241 244 244 245 243 243 244 247 246 250 252 251 253 260
260 258 251 248 244 249 251 252 247 242 240 235 232 230 229 229 232 234 233 235 238 240 240 237 239 243 247 250 249 246 245 244 245 247 247 246 246 248 248 248 249 253 257
257 253 251 246 247 250 255 254 252 248 244 242 238 233 231 231 231 235 237 239 239 241 240 241 244 244 241 243 247 249 251 249 246 246 246 248 248 248 248 247 249 253 257
255 255 252 249 248 248 248 249 248 250 247 245 242 238 235 234 233 234 235 236 241 244 243 243 245 243 243 243 245 247 249 252 251 248 248 247 248 250 249 249 250 251 254
251 253 251 248 247 245 245 246 247 247 247 247 246 244 239 238 237 237 238 238 238 238 241 247 247 245 246 245 244 247 248 248 249 250 248 249 250 250 252 253 252 252 253
252 250 251 250 248 247 247 246 244 246 248 247 246 245 245 243 239 240 239 240 241 242 243 243 245 249 248 247 248 247 248 248 248 248 249 249 249 250 252 253 255 255 254
249 247 248 250 250 249 248 248 246 245 246 248 249 246 243 243 243 243 242 241 241 242 243 244 245 246 247 248 248 248 248 248 249 250 250 250 250 250 251 253 255 256 257
250 249 247 246 246 247 248 247 247 247 245 246 247 248 248 244 244 243 242 244 243 241 242 242 244 245 246 246 247 248 247 246 248 249 250 251 252 252 251 251 254 258 259
258 255 252 249 248 247 246 245 245 246 247 246 244 245 246 247 246 245 244 242 243 244 243 242 241 243 244 245 245 246 248 247 244 247 249 250 250 251 252 251 251 252 256
264 262 259 255 251 249 248 247 246 246 245 245 247 245 244 245 245 245 246 244 242 242 243 244 243 242 243 244 244 246 246 247 247 244 246 250 251 250 251 252 251 252 253
267 265 264 262 259 255 251 248 247 245 246 246 244 244 247 246 245 243 244 246 244 242 242 243 243 243 243 243 243 244 245 246 247 248 247 246 250 251 250 250 252 253 253
266 264 264 263 263 262 259 258 253 248 247 246 246 246 244 244 246 246 244 243 245 244 242 242 243 244 243 243 244 245 245 246 245 245 246 247 249 251 250 251 252 252 254
263 264 264 263 263 261 259 258 257 254 250 248 246 246 246 245 243 243 244 244 243 243 245 244 242 243 243 244 244 244 244 245 246 247 244 243 245 250 254 251 252 252 253
263 262 260 259 259 259 259 259 257 256 255 252 248 247 246 246 245 243 243 244 244 243 244 245 245 244 243 243 244 245 245 245 245 247 247 246 245 247 250 254 256 255 254
266 261 258 259 260 259 259 258 257 256 256 253 251 249 246 245 246 245 244 243 243 244 244 244 244 244 244 244 243 244 245 245 246 246 248 248 248 247 249 252 253 254 256
277 271 262 258 258 257 257 257 257 256 255 254 252 250 249 247 246 245 245 244 243 242 243 244 243 243 243 243 244 244 245 245 245 247 247 248 248 248 248 249 251 253 255
275 271 267 263 259 258 258 257 257 257 256 256 254 252 250 250 248 246 244 244 244 244 244 245 245 245 243 243 244 245 246 246 246 246 246 248 249 249 250 251 252 252 253
Height
10830 10832 10832 10833 10835 10836 10838 10840 10842 10843 10845 10847 10849 10853 10854 10855 10856 10858 10859 10860 10861 10862 10864 10865 10868 10870 10872 10874 10876 10879 10881 10883 10885 10886 10887 10889 10892 10893 10894 10895 10896 10897 10897
10824 10826 10827 10828 10829 10831 10833 10835 10837 10839 10841 10843 10845 10849 10850 10852 10853 10854 10856 10857 10858 10860 10861 10863 10864 10866 10869 10870 10873 10875 10877 10879 10881 10884 10885 10887 10888 10889 10890 10892 10892 10893 10893
10816 10819 10820 10822 10823 10825 10826 10828 10831 10833 10835 10838 10840 10842 10845 10847 10849 10851 10853 10855 10856 10857 10858 10860 10861 10863 10865 10867 10868 10871 10873 10876 10878 10879 10881 10883 10884 10885 10886 10887 10887 10887 10888
10809 10809 10812 10814 10815 10817 10819 10821 10822 10825 10828 10831 10834 10837 10839 10841 10844 10846 10848 10850 10852 10854 10854 10856 10857 10859 10861 10863 10865 10867 10869 10872 10873 10875 10877 10878 10879 10881 10882 10882 10883 10883 10883
10796 10797 10800 10803 10804 10806 10809 10811 10814 10816 10818 10823 10825 10830 10833 10835 10838 10840 10843 10845 10847 10849 10851 10853 10854 10856 10858 10860 10862 10864 10866 10867 10869 10872 10872 10873 10875 10876 10878 10878 10879 10879 10879
10781 10785 10787 10789 10792 10794 10796 10799 10803 10806 10809 10813 10817 10820 10825 10829 10831 10834 10836 10839 10842 10844 10846 10848 10850 10852 10854 10856 10858 10860 10862 10862 10865 10867 10868 10869 10870 10872 10872 10874 10874 10875 10874
10769 10773 10773 10775 10777 10780 10783 10786 10790 10794 10798 10802 10807 10811 10816 10821 10824 10827 10829 10832 10835 10838 10840 10843 10845 10847 10850 10852 10854 10855 10857 10858 10860 10861 10862 10864 10865 10867 10867 10868 10868 10870 10869
10757 10761 10762 10763 10765 10768 10770 10773 10777 10780 10785 10790 10795 10801 10806 10811 10815 10818 10821 10824 10828 10832 10834 10836 10839 10842 10844 10846 10848 10850 10852 10853 10855 10855 10857 10859 10860 10862 10862 10863 10863 10864 10864
10748 10750 10753 10755 10756 10759 10761 10764 10767 10770 10773 10777 10783 10789 10794 10800 10805 10808 10812 10816 10820 10824 10827 10830 10832 10835 10838 10839 10841 10844 10846 10848 10849 10850 10851 10853 10855 10856 10857 10857 10858 10859 10859
10744 10743 10744 10748 10749 10751 10753 10755 10757 10761 10764 10768 10771 10777 10783 10788 10793 10798 10802 10806 10810 10815 10818 10821 10824 10826 10829 10832 10835 10837 10840 10842 10844 10845 10845 10847 10848 10851 10852 10853 10853 10854 10854
10737 10737 10738 10739 10742 10743 10745 10747 10748 10752 10755 10758 10761 10766 10771 10777 10782 10786 10791 10795 10799 10803 10808 10811 10814 10817 10820 10823 10826 10830 10832 10834 10836 10837 10839 10841 10842 10844 10846 10847 10848 10848 10849
10729 10730 10730 10732 10733 10735 10736 10740 10741 10742 10745 10748 10752 10756 10759 10765 10770 10775 10779 10783 10787 10791 10796 10801 10805 10807 10810 10814 10817 10820 10823 10825 10828 10829 10831 10834 10834 10836 10838 10840 10842 10843 10843
10720 10720 10723 10723 10724 10725 10726 10728 10731 10732 10736 10738 10741 10745 10749 10753 10757 10761 10767 10771 10776 10780 10785 10789 10793 10797 10801 10804 10806 10810 10812 10815 10818 10820 10823 10825 10827 10828 10830 10832 10834 10836 10837
10709 10708 10710 10712 10714 10715 10716 10718 10720 10722 10725 10728 10731 10734 10738 10741 10745 10750 10754 10758 10764 10769 10772 10776 10781 10785 10789 10793 10796 10799 10801 10805 10808 10809 10813 10815 10819 10820 10822 10824 10826 10828 10829
10695 10696 10697 10699 10701 10703 10705 10707 10709 10711 10713 10716 10719 10723 10726 10729 10733 10736 10741 10745 10751 10755 10758 10764 10768 10771 10776 10780 10784 10788 10790 10793 10796 10798 10802 10805 10808 10811 10813 10816 10818 10819 10821
10677 10680 10681 10683 10686 10688 10691 10693 10696 10699 10701 10703 10706 10709 10713 10716 10720 10723 10726 10729 10735 10741 10745 10750 10754 10758 10762 10767 10770 10772 10776 10780 10784 10787 10791 10795 10797 10801 10803 10806 10808 10810 10812
10661 10661 10662 10664 10666 10669 10673 10676 10680 10683 10686 10689 10691 10694 10698 10703 10706 10708 10713 10715 10719 10724 10730 10734 10739 10742 10746 10751 10754 10757 10762 10768 10771 10774 10777 10782 10786 10789 10792 10794 10797 10799 10801
10645 10645 10645 10646 10648 10650 10653 10656 10660 10663 10667 10671 10674 10678 10681 10685 10690 10694 10697 10701 10704 10709 10714 10719 10724 10727 10731 10735 10738 10742 10746 10752 10758 10761 10764 10766 10772 10776 10779 10782 10785 10787 10790
10629 10629 10628 10627 10628 10630 10633 10637 10640 10643 10645 10651 10655 10659 10664 10667 10672 10676 10679 10683 10689 10693 10697 10703 10708 10713 10716 10718 10721 10727 10731 10734 10741 10749 10751 10752 10757 10763 10766 10769 10771 10774 10776
10612 10610 10610 10608 10609 10611 10613 10614 10617 10621 10623 10628 10632 10638 10645 10649 10652 10657 10662 10664 10671 10676 10681 10686 10690 10696 10701 10704 10706 10711 10716 10720 10725 10732 10738 10741 10740 10745 10751 10754 10757 10760 10762
10588 10588 10590 10590 10588 10591 10592 10594 10598 10599 10602 10604 10609 10614 10619 10625 10632 10637 10642 10646 10651 10657 10663 10667 10673 10678 10683 10686 10689 10694 10701 10704 10710 10716 10722 10726 10727 10728 10734 10737 10742 10746 10747
10567 10564 10564 10564 10564 10563 10565 10567 10573 10575 10578 10582 10588 10591 10595 10601 10607 10613 10618 10625 10632 10637 10642 10647 10653 10658 10664 10667 10673 10677 10684 10689 10696 10700 10706 10712 10714 10713 10714 10722 10725 10729 10731
10542 10540 10539 10539 10538 10536 10538 10541 10545 10547 10550 10556 10562 10568 10572 10576 10581 10588 10594 10600 10606 10614 10620 10626 10631 10638 10642 10647 10653 10659 10666 10675 10678 10681 10689 10694 10700 10702 10700 10702 10708 10712 10715
10514 10511 10512 10511 10513 10513 10513 10513 10516 10521 10522 10526 10537 10541 10546 10552 10557 10563 10569 10575 10581 10588 10594 10600 10607 10613 10621 10625 10630 10637 10644 10652 10658 10665 10669 10675 10680 10686 10687 10687 10690 10694 10697
10486 10481 10481 10481 10480 10481 10483 10484 10488 10493 10497 10500 10507 10514 10519 10525 10530 10537 10543 10548 10555 10561 10567 10573 10580 10587 10595 10603 10608 10614 10621 10630 10639 10646 10651 10654 10658 10667 10668 10672 10672 10678 10684
10456 10452 10448 10446 10446 10450 10454 10456 10461 10465 10469 10475 10481 10487 10493 10499 10503 10508 10515 10522 10531 10538 10544 10549 10554 10560 10569 10578 10585 10591 10601 10607 10616 10623 10629 10631 10638 10645 10650 10655 10658 10661 10666